Find Starlink 3956

NORAD ID: 52560 Int'l Des: 2022-051 Owner: SPXS Country: US Constellation: starlink operational
LEOCIRCULAR

当前视图

正在加载3D地球...

About Starlink 3956

Starlink 3956 (NORAD 52560) is a starlink constellation satellite (v1.5) launched May 13, 2022 by SPXS of US. It operates in LEO, CIRCULAR orbit with a mass of 297.00 kg.

即将过境

Passes for default location (London). Set your location on the main map for personalized predictions.

高度历史

Loading altitude history...

两行轨道根数

1 52560U 22051AD 26265.45354311 -.00000889 00000-0 -14578-4 0 9991
2 52560 53.1608 308.8984 0001413 62.5930 297.5217 15.35406933241376
Epoch: Sep 22, 2026 • Age: 17 hours

当前状态

高度 474.3 km
远地点 / 近地点 N/A
速度 7.63 km/s
星下点 -41.13°S, 111.34°E
发射日期 May 13, 2022
运行时间 4.3 years
类型 internet

技术详情

分类 Payload
质量 297.00 kg
干质量 275.00 kg
长度 0.20 m
跨度 9.00 m
形状 ? Box + pan
制造商 SPXS
平台类型 Starlink
阶段状态 In Orbit
所有者/国家 SPXS/US

Most Searched